Location: Champseau
(45.8333°N, 1.7667°E)
Time: 18:26:09
(UTC+00:00)

SeaSat 1 - Pass Details

Date: 18 April 2021
Orbit: 744 x 747 km, 108.0° (Epoch: 11 May)

Event Time Altitude Azimuth Distance (km) Brightness Sun altitude
Rises 22:58:22 0° 24° (NNE) 3,203 6.4 -31.7°
Reaches altitude 10° 23:00:41 10° 20° (NNE) 2,275 5.5 -31.8°
Enters shadow 23:04:24 45° 349° (NNW) 1,015 3.4 -32.0°
